Hourly Data Report for October 25, 2015

All times are specified in Local Standard Time (LST). Add 1 hour to adjust for Daylight Saving Time where and when it is observed.

CORAL HARBOUR A
NUNAVUT

64°11'36.000" N
83°21'34.000" W
62.20 m
2301002
71915
YZS

Download Data

Hourly Data (October 2015)
Hourly Data Report for October 25, 2015
Temp Definition
°C
Dew Point Temp Definition
°C
Rel Hum Definition
%
Wind Dir Definition
10's deg

Wind Spd Definition
km/h
Visibility Definition
km
Stn Press Definition
kPa
Hmdx Definition


Wind Chill Definition


Weather Definition


TIME
00:00 Legend Double Dagger -17.0 -20.1 77 32 8 24.1 99.24   -23 LegendNANA
01:00 Legend Double Dagger -15.6 -18.6 78 31 23 24.1 99.21   -26 Clear
02:00 Legend Double Dagger -14.9 -18.6 74 32 22 24.1 99.21   -24 LegendNANA
03:00 Legend Double Dagger -15.1 -18.6 75 33 18 24.1 99.21   -24 LegendNANA
04:00 Legend Double Dagger -15.2 -18.4 77 33 21 24.1 99.20   -25 Mostly Cloudy
05:00 Legend Double Dagger -15.6 -18.9 76 29 20 24.1 99.21   -25 LegendNANA
06:00 Legend Double Dagger -16.8 -19.2 82 29 20 24.1 99.21   -26 LegendNANA
07:00 Legend Double Dagger -17.6 -20.3 80 30 14 24.1 99.20   -26 Mostly Cloudy
08:00 Legend Double Dagger -19.6 -22.7 77 31 15 24.1 99.23   -29 LegendNANA
09:00 Legend Double Dagger -20.2 -23.1 78 29 14 24.1 99.22   -29 LegendNANA
10:00 Legend Double Dagger -20.0 -22.9 78 30 18 24.1 99.20   -30 LegendNANA
11:00 Legend Double Dagger -17.8 -21.4 74 28 16 24.1 99.18   -27 LegendNANA
12:00 Legend Double Dagger -17.8 -21.1 76 30 17 24.1 99.17   -27 LegendNANA
13:00 Legend Double Dagger -16.7 -21.0 70 29 37 24.1 99.11   -29 Clear
14:00 Legend Double Dagger -17.0 -21.1 71 30 26 24.1 99.13   -28 LegendNANA
15:00 Legend Double Dagger -17.1 -20.9 73 29 22 24.1 99.13   -27 LegendNANA
16:00 Legend Double Dagger -17.9 -21.5 74 31 21 24.1 99.13   -28 Mainly Clear
17:00 Legend Double Dagger -20.4 -23.5 77 29 12 24.1 99.14   -29 LegendNANA
18:00 Legend Double Dagger -20.0 -22.9 78 35 7 24.1 99.14   -26 LegendNANA
19:00 Legend Double Dagger -18.9 -22.1 76 29 14 24.1 99.06   -27 Mainly Clear
20:00 Legend Double Dagger -19.0 -22.2 76 30 18 24.1 99.02   -29 LegendNANA
21:00 Legend Double Dagger -17.1 -20.7 74 29 28 24.1 98.93   -28 LegendNANA
22:00 Legend Double Dagger -18.7 -21.6 78 28 18 24.1 98.90   -28 Mostly Cloudy
23:00 Legend Double Dagger -19.5 -22.1 80 27 17 24.1 98.82   -29 LegendNANA

Notes on Data Quality.

Legend

  • E = Estimated
  • M = Missing
  • NA = Not Available
  • ‡ = Partner data that is not subject to review by the National Climate Archives
Date modified: